User: anonymous   Login
Location: SAPM � Hemmingford
(45.0500°N, 73.5833°W)
Time: 17:16:54
(UTC-05:00)
Language:

Cosmos 1603 - Orbit

View from above orbital plane
View from above orbital plane
View from above satellite
View from above satellite

Ground track
Ground track

The orbit data is extracted from the following two-line orbital elements,

1 15333U 84106A   16337.47988360 -.00000211  00000-0 -86160-4 0  9990
2 15333  71.0254 144.2707 0018144 152.9715 207.2356 14.14050366660455
Epoch (UTC): 02 December 2016 11:31:01
Eccentricity: 0.0018144
inclination: 71.0254°
perigee height: 832 km
apogee height: 858 km
right ascension of ascending node: 144.2707°
argument of perigee: 152.9715°
revolutions per day: 14.14050366
mean anomaly at epoch: 207.2356°
orbit number at epoch: 66045

The dashed part of the orbit path shows where the satellite is in the earth's shadow,  

DLR